TimePST,TemperatureF,Dew PointF,Humidity,Sea Level PressureIn,VisibilityMPH,Wind Direction,Wind SpeedMPH,Gust SpeedMPH,PrecipitationIn,Events,Conditions,WindDirDegrees,DateUTC
12:00 AM,42.8,35.6,76,30.48,20.0,East,6.9,-,N/A,,Overcast,90,2013-02-14 08:00:00
1:00 AM,41.0,35.6,81,30.48,20.0,East,6.9,-,N/A,,Overcast,90,2013-02-14 09:00:00
2:00 AM,42.8,35.6,76,30.48,20.0,East,8.1,-,N/A,,Overcast,80,2013-02-14 10:00:00
3:00 AM,42.8,37.4,81,30.49,15.0,East,6.9,-,N/A,Rain,Light Rain,90,2013-02-14 11:00:00
4:00 AM,42,37,77,30.51,12,ESE,6.9,,,Rain,Light Rain,110,2013-02-14 12:00:00
4:00 AM,42.8,37.4,81,30.51,12.0,ESE,6.9,-,N/A,Rain,Light Rain,110,2013-02-14 12:00:00
5:00 AM,41.0,37.4,87,30.51,10.0,SE,3.5,-,N/A,Rain,Light Rain,130,2013-02-14 13:00:00
5:36 AM,41.0,-9999,N/A,-9999,12.0,SE,4.6,-,N/A,,Overcast,130,2013-02-14 13:36:00
6:00 AM,41.0,37.4,87,30.52,12.0,Calm,Calm,-,N/A,,Overcast,0,2013-02-14 14:00:00
7:00 AM,41.0,37.4,87,30.53,12.0,SE,2.3,-,N/A,,Overcast,140,2013-02-14 15:00:00
7:13 AM,41.0,-9999,N/A,-9999,12.0,ESE,3.5,-,N/A,,Overcast,120,2013-02-14 15:13:00
8:00 AM,41.0,37.4,87,30.53,12.0,ESE,2.3,-,N/A,,Overcast,120,2013-02-14 16:00:00
9:00 AM,42.8,37.4,81,30.55,12.0,East,4.6,-,N/A,,Light Drizzle,80,2013-02-14 17:00:00
9:03 AM,42.8,-9999,N/A,-9999,6.0,East,4.6,-,N/A,,Light Drizzle,80,2013-02-14 17:03:00
9:41 AM,42.8,-9999,N/A,-9999,3.0,East,8.1,-,N/A,,Light Drizzle,80,2013-02-14 17:41:00
9:44 AM,42.8,-9999,N/A,-9999,3.0,East,8.1,-,N/A,,Light Drizzle,80,2013-02-14 17:44:00
10:00 AM,42,38,79,30.56,3,East,6.9,,,Rain,Light Drizzle,80,2013-02-14 18:00:00
10:00 AM,42.8,37.4,81,30.56,3.0,East,6.9,-,N/A,,Light Drizzle,80,2013-02-14 18:00:00
10:23 AM,42.8,-9999,N/A,-9999,2.0,East,8.1,-,N/A,,Light Drizzle,80,2013-02-14 18:23:00
10:52 AM,42.8,-9999,N/A,-9999,2.0,East,8.1,-,N/A,,Light Drizzle,100,2013-02-14 18:52:00
11:00 AM,42.8,39.2,87,30.56,2.0,East,8.1,-,N/A,,Light Drizzle,90,2013-02-14 19:00:00
11:20 AM,42.8,-9999,N/A,-9999,3.0,East,8.1,-,N/A,Rain,Light Rain,90,2013-02-14 19:20:00
11:56 AM,42.8,-9999,N/A,-9999,3.0,East,8.1,-,N/A,Rain,Light Rain,100,2013-02-14 19:56:00
12:00 PM,42.8,39.2,87,30.57,3.0,East,9.2,-,N/A,Rain,Light Rain,100,2013-02-14 20:00:00
12:24 PM,42.8,-9999,N/A,-9999,6.0,East,6.9,-,N/A,Rain,Light Rain,90,2013-02-14 20:24:00
1:00 PM,44.6,39.2,81,30.57,7.0,East,6.9,-,N/A,Rain,Light Rain,90,2013-02-14 21:00:00
1:26 PM,44.6,-9999,N/A,-9999,7.0,East,5.8,-,N/A,Rain,Light Rain,90,2013-02-14 21:26:00
1:51 PM,44.6,-9999,N/A,-9999,7.0,East,6.9,-,N/A,,Light Drizzle,90,2013-02-14 21:51:00
2:00 PM,44.6,39.2,81,30.57,7.0,East,9.2,-,N/A,,Light Drizzle,90,2013-02-14 22:00:00
2:56 PM,44.6,-9999,N/A,-9999,12.0,East,6.9,-,N/A,,Overcast,80,2013-02-14 22:56:00
3:00 PM,44.6,39.2,81,30.58,12.0,ENE,8.1,-,N/A,,Overcast,70,2013-02-14 23:00:00
3:35 PM,44.6,-9999,N/A,-9999,8.0,ESE,8.1,-,N/A,,Light Drizzle,110,2013-02-14 23:35:00
4:00 PM,45,39,74,30.57,12,ESE,5.8,,,Rain,Light Drizzle,110,2013-02-15 00:00:00
4:00 PM,44.6,39.2,81,30.57,12.0,ESE,6.9,-,N/A,,Overcast,120,2013-02-15 00:00:00
5:00 PM,44.6,39.2,81,30.58,12.0,East,4.6,-,N/A,,Overcast,100,2013-02-15 01:00:00
6:00 PM,44.6,39.2,81,30.57,12.0,East,4.6,-,N/A,,Overcast,90,2013-02-15 02:00:00
7:00 PM,44.6,39.2,81,30.58,15.0,East,3.5,-,N/A,,Overcast,100,2013-02-15 03:00:00
8:00 PM,44.6,39.2,81,30.58,15.0,ESE,3.5,-,N/A,,Overcast,120,2013-02-15 04:00:00
9:00 PM,44.6,39.2,81,30.58,15.0,East,3.5,-,N/A,,Overcast,100,2013-02-15 05:00:00
9:46 PM,44.6,-9999,N/A,-9999,12.0,ESE,4.6,-,N/A,,Overcast,120,2013-02-15 05:46:00
10:00 PM,44,39,78,30.59,12,ESE,5.8,,,,Partly Cloudy,120,2013-02-15 06:00:00
10:00 PM,44.6,39.2,81,30.59,12.0,ESE,4.6,-,N/A,,Overcast,110,2013-02-15 06:00:00
11:00 PM,42.8,39.2,87,30.60,8.0,ESE,4.6,-,N/A,,Overcast,120,2013-02-15 07:00:00
11:14 PM,42.8,-9999,N/A,-9999,8.0,ESE,4.6,-,N/A,,Light Drizzle,110,2013-02-15 07:14:00